TimeCDT,TemperatureF,Dew PointF,Humidity,Sea Level PressureIn,VisibilityMPH,Wind Direction,Wind SpeedMPH,Gust SpeedMPH,PrecipitationIn,Events,Conditions,WindDirDegrees,DateUTC
12:34 AM,28.4,23.0,80,30.39,10.0,ESE,3.5,-,N/A,,Clear,120,2012-10-12 05:34:00
12:53 AM,30.2,24.8,80,30.39,10.0,ESE,3.5,-,N/A,,Clear,110,2012-10-12 05:53:00
1:13 AM,28.4,24.8,86,30.39,10.0,Calm,Calm,-,N/A,,Clear,0,2012-10-12 06:13:00
1:34 AM,28.4,24.8,86,30.40,10.0,ESE,3.5,-,N/A,,Clear,110,2012-10-12 06:34:00
1:53 AM,28.4,24.8,86,30.40,10.0,ESE,3.5,-,N/A,,Clear,110,2012-10-12 06:53:00
2:13 AM,26.6,23.0,86,30.39,10.0,East,4.6,-,N/A,,Clear,90,2012-10-12 07:13:00
2:34 AM,26.6,21.2,80,30.39,10.0,East,4.6,-,N/A,,Clear,90,2012-10-12 07:34:00
2:53 AM,28.4,23.0,80,30.39,10.0,SE,3.5,-,N/A,,Clear,130,2012-10-12 07:53:00
3:13 AM,30.2,26.6,86,30.39,10.0,ESE,5.8,-,N/A,,Clear,110,2012-10-12 08:13:00
3:53 AM,28.4,23.0,80,30.38,10.0,SE,4.6,-,N/A,,Clear,140,2012-10-12 08:53:00
4:13 AM,28.4,23.0,80,30.38,10.0,SE,5.8,-,N/A,,Clear,140,2012-10-12 09:13:00
4:34 AM,26.6,21.2,80,30.38,10.0,SSE,3.5,-,N/A,,Clear,150,2012-10-12 09:34:00
5:13 AM,26.6,23.0,86,30.38,10.0,SSE,4.6,-,N/A,,Clear,150,2012-10-12 10:13:00
5:34 AM,26.6,23.0,86,30.38,10.0,SSE,4.6,-,N/A,,Clear,160,2012-10-12 10:34:00
5:53 AM,24.8,23.0,93,30.36,10.0,SSE,6.9,-,N/A,,Clear,150,2012-10-12 10:53:00
6:13 AM,24.8,21.2,86,30.37,10.0,SSE,5.8,-,N/A,,Clear,160,2012-10-12 11:13:00
6:33 AM,23.0,19.4,86,30.37,10.0,SSE,6.9,-,N/A,,Clear,160,2012-10-12 11:33:00
6:53 AM,23.0,19.4,86,30.37,10.0,SSE,6.9,-,N/A,,Clear,160,2012-10-12 11:53:00
7:13 AM,26.6,21.2,80,30.37,10.0,SE,5.8,-,N/A,,Clear,140,2012-10-12 12:13:00
7:34 AM,26.6,21.2,80,30.36,10.0,SE,6.9,-,N/A,,Clear,140,2012-10-12 12:34:00
7:53 AM,28.4,23.0,80,30.36,10.0,SE,8.1,-,N/A,,Clear,140,2012-10-12 12:53:00
8:13 AM,28.4,23.0,80,30.36,10.0,SSE,6.9,-,N/A,,Clear,150,2012-10-12 13:13:00
8:33 AM,30.2,24.8,80,30.35,10.0,SSE,8.1,-,N/A,,Clear,150,2012-10-12 13:33:00
9:13 AM,33.8,24.8,70,30.33,10.0,SSE,11.5,-,N/A,,Clear,150,2012-10-12 14:13:00
9:33 AM,33.8,24.8,70,30.32,10.0,SSE,12.7,-,N/A,,Clear,160,2012-10-12 14:33:00
9:53 AM,35.6,24.8,65,30.32,10.0,SSE,15.0,-,N/A,,Clear,160,2012-10-12 14:53:00
10:13 AM,37.4,24.8,60,30.32,10.0,South,15.0,-,N/A,,Clear,170,2012-10-12 15:13:00
10:33 AM,39.2,23.0,52,30.30,10.0,SSE,17.3,21.9,N/A,,Clear,160,2012-10-12 15:33:00
10:53 AM,41.0,21.2,45,30.30,10.0,SSE,17.3,-,N/A,,Clear,160,2012-10-12 15:53:00
11:13 AM,42.8,21.2,42,30.28,10.0,South,20.7,-,N/A,,Clear,170,2012-10-12 16:13:00
11:33 AM,42.8,21.2,42,30.28,10.0,SSE,18.4,-,N/A,,Clear,160,2012-10-12 16:33:00
12:13 PM,44.6,17.6,34,30.27,10.0,South,17.3,26.5,N/A,,Clear,190,2012-10-12 17:13:00
12:33 PM,46.4,17.6,32,30.25,10.0,South,20.7,-,N/A,,Clear,180,2012-10-12 17:33:00
12:53 PM,46.4,17.6,32,30.24,10.0,South,20.7,26.5,N/A,,Clear,170,2012-10-12 17:53:00
1:33 PM,48.2,15.8,27,30.19,10.0,South,23.0,27.6,N/A,,Clear,190,2012-10-12 18:33:00
2:53 PM,51.8,14.0,22,30.13,10.0,South,21.9,29.9,N/A,,Clear,180,2012-10-12 19:53:00
3:33 PM,51.8,12.2,21,30.10,10.0,South,24.2,29.9,N/A,,Clear,170,2012-10-12 20:33:00
3:53 PM,51.8,14.0,22,30.09,10.0,South,24.2,28.8,N/A,,Clear,180,2012-10-12 20:53:00
4:14 PM,51.8,14.0,22,30.07,10.0,South,20.7,-,N/A,,Clear,180,2012-10-12 21:14:00
4:33 PM,51.8,12.2,21,30.06,10.0,South,23.0,28.8,N/A,,Clear,180,2012-10-12 21:33:00
4:53 PM,53.6,12.2,19,30.04,10.0,South,24.2,29.9,N/A,,Clear,170,2012-10-12 21:53:00
5:14 PM,51.8,12.2,21,30.02,10.0,South,27.6,32.2,N/A,,Clear,170,2012-10-12 22:14:00
5:33 PM,51.8,12.2,21,30.01,10.0,SSE,24.2,31.1,N/A,,Clear,160,2012-10-12 22:33:00
5:53 PM,51.8,12.2,21,30.00,10.0,South,24.2,27.6,N/A,,Clear,170,2012-10-12 22:53:00
6:14 PM,51.8,12.2,21,29.99,10.0,South,19.6,29.9,N/A,,Clear,170,2012-10-12 23:14:00
6:33 PM,50.0,12.2,22,29.98,10.0,SSE,19.6,-,N/A,,Clear,160,2012-10-12 23:33:00
6:53 PM,48.2,12.2,24,29.98,10.0,SSE,17.3,-,N/A,,Clear,160,2012-10-12 23:53:00
7:14 PM,48.2,12.2,24,29.97,10.0,SSE,17.3,-,N/A,,Clear,160,2012-10-13 00:14:00
7:53 PM,48.2,14.0,25,29.94,10.0,SSE,16.1,-,N/A,,Mostly Cloudy,160,2012-10-13 00:53:00
8:14 PM,48.2,14.0,25,29.93,10.0,SSE,18.4,25.3,N/A,,Overcast,160,2012-10-13 01:14:00
8:33 PM,50.0,14.0,24,29.92,10.0,SSE,19.6,27.6,N/A,,Overcast,160,2012-10-13 01:33:00
8:53 PM,50.0,14.0,24,29.90,10.0,SSE,19.6,24.2,N/A,,Overcast,160,2012-10-13 01:53:00
9:13 PM,51.8,14.0,22,29.89,10.0,South,21.9,27.6,N/A,,Overcast,170,2012-10-13 02:13:00
9:33 PM,51.8,14.0,22,29.89,10.0,South,20.7,26.5,N/A,,Overcast,170,2012-10-13 02:33:00
10:13 PM,51.8,14.0,22,29.87,10.0,SSE,23.0,26.5,N/A,,Overcast,160,2012-10-13 03:13:00
10:53 PM,51.8,14.0,22,29.86,10.0,South,23.0,28.8,N/A,,Overcast,170,2012-10-13 03:53:00
11:13 PM,51.8,14.0,22,29.85,10.0,South,21.9,29.9,N/A,,Overcast,180,2012-10-13 04:13:00
11:33 PM,51.8,15.8,24,29.84,10.0,South,21.9,29.9,N/A,,Overcast,170,2012-10-13 04:33:00